Weather History for Medicine Lodge, KS

Change the Weather History Date:

Monday, May 27, 2013

  Actual Average Record
Temperature  
Mean Temperature 81 °F 71 °F  
Max Temperature 92 °F 83 °F 100 °F (1896)
Min Temperature 69 °F 59 °F 44 °F (1992)
Degree Days  
Heating Degree Days 0 1  
Month to date heating degree days 114 69  
Since 1 July heating degree days 4519 4454  
Cooling Degree Days 16 7  
Month to date cooling degree days 88 104  
Year to date cooling degree days 109 128  
Growing Degree Days 30 (Base 50)    
Moisture  
Dew Point 67 °F    
Average Humidity 67    
Maximum Humidity 90    
Minimum Humidity 44    
Precipitation  
Precipitation 0.00 in 0.11 in 2.90 in (1900)
Month to date precipitation 1.65 2.77  
Year to date precipitation 9.40 9.21  
Snow  
Snow 0.00 in 0.00 in - ()
Month to date snowfall 0.0 0.0  
Since 1 July snowfall 25.0 8.5  
Snow Depth 0.00 in    
Sea Level Pressure  
Sea Level Pressure 29.64 in    
Wind  
Wind Speed 14 mph (SSE)    
Max Wind Speed 29 mph    
Max Gust Speed 37 mph    
T = Trace of Precipitation, MM = Missing Value Source: NWS Daily Summary

Daily Weather History Graph

Daily Weather History Graph

Search for Another Location

Airport:

Trip Planner

Search our weather history database for the weather conditions in past years. The results will help you decide how hot, cold, wet, or windy it might be!

Date:

Astronomy

May. 27, 2013 Rise Set
Actual Time 6:17 AM CDT 8:45 PM CDT
Civil Twilight 5:47 AM CDT 9:16 PM CDT
Nautical Twilight 5:10 AM CDT 9:53 PM CDT
Astronomical Twilight 4:28 AM CDT 10:34 PM CDT
Moon 11:27 PM CDT (5/27) 8:55 AM CDT (5/27)
Length of Visible Light 15h 28m
Length of Day
14h 28m
Waning Gibbous, 91% of the Moon is Illuminated
May 27
Waning Gibbous
May 31
Last Quarter
Jun 8
New
Jun 16
First Quarter
Jun 23
Full

Hourly Weather History & Observations

Time (CDT) Temp. Heat Index Dew Point Humidity Pressure Visibility Wind Dir Wind Speed Gust Speed Precip Events Conditions
12:56 AM 73.0 °F - 66.9 °F 81% 29.77 in - South 11.5 mph 20.7 mph N/A   Unknown
1:56 AM 72.0 °F - 66.9 °F 84% 29.75 in - South 12.7 mph 21.9 mph N/A   Unknown
2:56 AM 71.1 °F - 66.9 °F 87% 29.74 in - SSE 6.9 mph - N/A   Unknown
3:56 AM 70.0 °F - 66.9 °F 90% 29.72 in - SSE 8.1 mph - N/A   Unknown
4:56 AM 70.0 °F - 66.9 °F 90% 29.70 in - SE 10.4 mph - N/A   Unknown
5:56 AM 70.0 °F - 66.9 °F 90% 29.70 in - SE 9.2 mph - N/A   Unknown
6:56 AM 70.0 °F - 66.0 °F 87% 29.69 in - SSE 11.5 mph 18.4 mph N/A   Unknown
7:56 AM 72.0 °F - 66.9 °F 84% 29.71 in - SSE 11.5 mph 18.4 mph N/A   Unknown
8:56 AM 73.9 °F - 68.0 °F 82% 29.70 in - SSE 11.5 mph 19.6 mph N/A   Unknown
9:56 AM 78.1 °F - 68.0 °F 71% 29.68 in - South 16.1 mph 26.5 mph N/A   Unknown
10:56 AM 81.0 °F 83.3 °F 66.9 °F 62% 29.66 in - South 20.7 mph 33.4 mph N/A   Unknown
11:56 AM 84.0 °F 86.3 °F 66.0 °F 55% 29.65 in - South 21.9 mph 33.4 mph N/A   Unknown
12:56 PM 86.0 °F 88.8 °F 66.9 °F 53% 29.63 in - South 20.7 mph 32.2 mph N/A   Unknown
1:56 PM 88.0 °F 90.7 °F 66.9 °F 49% 29.62 in - South 20.7 mph 29.9 mph N/A   Unknown
2:56 PM 90.0 °F 92.4 °F 66.0 °F 45% 29.59 in - South 24.2 mph 29.9 mph N/A   Unknown
3:56 PM 90.0 °F 91.7 °F 64.9 °F 43% 29.56 in - South 20.7 mph 38.0 mph N/A   Unknown
4:56 PM 90.0 °F 92.4 °F 66.0 °F 45% 29.54 in - South 18.4 mph 34.5 mph N/A   Unknown
5:56 PM 87.1 °F 90.6 °F 68.0 °F 53% 29.52 in - SSE 17.3 mph 32.2 mph N/A   Unknown
6:56 PM 84.9 °F 88.2 °F 68.0 °F 57% 29.52 in - SSE 15.0 mph 32.2 mph N/A   Unknown
7:56 PM 81.0 °F 83.8 °F 68.0 °F 65% 29.55 in - South 16.1 mph 28.8 mph N/A   Unknown
8:56 PM 78.1 °F - 66.9 °F 68% 29.57 in - South 15.0 mph 31.1 mph N/A   Unknown
9:56 PM 75.9 °F - 66.9 °F 74% 29.54 in - South 15.0 mph 23.0 mph N/A   Unknown
10:56 PM 75.0 °F - 66.0 °F 73% 29.59 in - South 9.2 mph - N/A   Unknown
11:56 PM 73.0 °F - 66.0 °F 79% 29.58 in - SSE 8.1 mph - N/A   Unknown